{"data":{"norad_id":68832,"intl_designator":"2026-091B","name":"HJS-9B","alt_names":[],"object_type":"PAYLOAD","status":"ACTIVE","operator":null,"country":"PRC","launch_date":"2026-04-24","launch_site_code":"XICLF","launch_vehicle":null,"mission":null,"orbit_class":"UNKNOWN","rcs_meters":null,"size_class":null,"mass_kg":null,"dimensions":null,"purposes":[],"wikipedia_slug":null,"has_3d_model":false,"image_url":null,"decayed_at":null,"tle_current":{"epoch":"2026-05-24T07:39:09.852192Z","epoch_age_seconds":131209,"freshness":"FRESH","line1":"1 68832U 26091B   26144.31886403  .00010579  00000+0  51042-3 0  9991","line2":"2 68832  55.0016 125.9967 0010824   0.9083 359.1955 15.19207180  4577","mean_motion":15.1920718,"eccentricity":0.0010824,"inclination_deg":55.0016,"raan_deg":125.9967,"arg_perigee_deg":0.9083,"mean_anomaly_deg":359.1955,"bstar":0.00051042,"rev_number":457,"period_min":94.78628188158,"perigee_km":500.78159745068,"apogee_km":515.68921643724,"semimajor_km":6886.372406944,"source":"CELESTRAK","updated_at":"2026-05-25T13:38:08.124483Z"}}}